Location: Bessat
(45.8735°N, 1.9924°E)
Time: 08:06:44
(UTC+00:00)

Cosmos 2074 Rocket - Pass Details

Date: 11 May 2021
Orbit: 968 x 985 km, 82.9° (Epoch: 15 June)

Event Time Altitude Azimuth Distance (km) Brightness Sun altitude
Rises 21:09:47 0° 352° (N) 3,705 8.1 -16.6°
Reaches altitude 10° 21:12:20 10° 355° (N) 2,753 7.2 -16.9°
Maximum altitude 21:18:39 73° 80° (E) 1,030 4.0 -17.6°
Enters shadow 21:22:15 27° 160° (SSE) 1,783 4.8 -18.0°
